Weather History for Pierre, SD

Change the Weather History Date:

Monday, October 1, 2012

  Actual Average Record
Temperature  
Mean Temperature 54 °F 55 °F  
Max Temperature 69 °F 69 °F 96 °F (1953)
Min Temperature 38 °F 42 °F 25 °F (1985)
Degree Days  
Heating Degree Days 11 10  
Month to date heating degree days 11 10  
Since 1 July heating degree days 119 181  
Cooling Degree Days 0 1  
Month to date cooling degree days 0 1  
Year to date cooling degree days 1112 864  
Growing Degree Days 6 (Base 50)    
Moisture  
Dew Point 35 °F    
Average Humidity 52    
Maximum Humidity 83    
Minimum Humidity 20    
Precipitation  
Precipitation T in 0.07 in 0.82 in (1977)
Month to date precipitation T 0.07  
Year to date precipitation 10.11 17.12  
Snow  
Snow 0.00 in - - ()
Month to date snowfall 0.0  
Snow Depth 0.00 in    
Sea Level Pressure  
Sea Level Pressure 30.11 in    
Wind  
Wind Speed 11 mph (NNW)    
Max Wind Speed 26 mph    
Max Gust Speed 32 mph    
Visibility 10 miles    
Events Rain    
T = Trace of Precipitation, MM = Missing Value Source: NWS Daily Summary

Daily Weather History Graph

Daily Weather History Graph

Search for Another Location

Airport:

Trip Planner

Search our weather history database for the weather conditions in past years. The results will help you decide how hot, cold, wet, or windy it might be!

Date:

Astronomy

Oct. 01, 2012 Rise Set
Actual Time 7:39 AM CDT 7:20 PM CDT
Civil Twilight 7:10 AM CDT 7:49 PM CDT
Nautical Twilight 6:36 AM CDT 8:23 PM CDT
Astronomical Twilight 6:02 AM CDT 8:57 PM CDT
Moon 7:52 PM CDT (10/1) 9:16 AM CDT (10/1)
Length of Visible Light 12h 39m
Length of Day
11h 41m
Full, 98% of the Moon is Illuminated
Oct 1
Full
Oct 8
Last Quarter
Oct 15
New
Oct 21
First Quarter
Oct 29
Full

Hourly Weather History & Observations

Time (CDT) Temp. Windchill Dew Point Humidity Pressure Visibility Wind Dir Wind Speed Gust Speed Precip Events Conditions
12:53 AM 62.1 °F - 48.9 °F 62% 30.02 in 10.0 mi North 20.7 mph 26.5 mph N/A   Partly Cloudy
1:53 AM 61.0 °F - 42.1 °F 50% 30.02 in 10.0 mi NE 15.0 mph - 0.00 in Rain Light Rain
2:53 AM 57.9 °F - 45.0 °F 62% 30.06 in 10.0 mi North 10.4 mph - 0.00 in   Partly Cloudy
3:53 AM 57.0 °F - 46.0 °F 67% 30.08 in 10.0 mi NNW 17.3 mph - N/A   Overcast
4:53 AM 55.9 °F - 46.9 °F 72% 30.10 in 10.0 mi NNW 12.7 mph - N/A   Overcast
5:53 AM 54.0 °F - 48.0 °F 80% 30.13 in 10.0 mi NNW 19.6 mph 29.9 mph N/A   Overcast
6:53 AM 52.0 °F - 45.0 °F 77% 30.15 in 10.0 mi NNW 17.3 mph 25.3 mph N/A   Scattered Clouds
7:53 AM 50.0 °F - 43.0 °F 77% 30.18 in 10.0 mi NNW 15.0 mph - N/A   Scattered Clouds
9:53 AM 55.0 °F - 43.0 °F 64% 30.21 in 10.0 mi NNW 17.3 mph - N/A   Clear
10:53 AM 57.9 °F - 41.0 °F 53% 30.22 in 10.0 mi North - - N/A   Clear
11:53 AM 63.0 °F - 37.0 °F 38% 30.20 in 10.0 mi NNW 19.6 mph 25.3 mph N/A   Clear
12:53 PM 66.0 °F - 32.0 °F 28% 30.17 in 10.0 mi NNW 17.3 mph 25.3 mph N/A   Clear
1:53 PM 66.9 °F - 30.9 °F 26% 30.15 in 10.0 mi NW 20.7 mph 26.5 mph N/A   Clear
2:53 PM 68.0 °F - 28.0 °F 22% 30.13 in 10.0 mi North 13.8 mph 21.9 mph N/A   Clear
3:53 PM 69.1 °F - 27.0 °F 21% 30.11 in 10.0 mi NNW 9.2 mph 19.6 mph N/A   Clear
4:53 PM 68.0 °F - 26.1 °F 21% 30.09 in 10.0 mi North 11.5 mph 20.7 mph N/A   Clear
5:53 PM 68.0 °F - 26.1 °F 21% 30.08 in 10.0 mi NW 8.1 mph - N/A   Clear
6:53 PM 63.0 °F - 21.9 °F 21% 30.08 in 10.0 mi NNW 4.6 mph - N/A   Clear
7:53 PM 55.9 °F - 25.0 °F 30% 30.08 in 10.0 mi NW 3.5 mph - N/A   Clear
8:53 PM 53.1 °F - 25.0 °F 34% 30.07 in 10.0 mi Calm Calm - N/A   Clear
9:53 PM 46.0 °F - 23.0 °F 40% 30.06 in 10.0 mi Calm Calm - N/A   Clear
10:53 PM 43.0 °F - 24.1 °F 47% 30.06 in 10.0 mi Calm Calm - N/A   Clear
11:53 PM 44.1 °F 42.5 °F 30.0 °F 58% 30.02 in 10.0 mi SSE 3.5 mph - N/A   Clear